Weather History for KMTO - June, 2013

Change the Weather History Date:

Friday, June 14, 2013

  Actual Average Record
Temperature  
Mean Temperature 68 °F 72 °F  
Max Temperature 82 °F 82 °F 100 °F (1987)
Min Temperature 54 °F 62 °F 44 °F (1955)
Degree Days  
Heating Degree Days 0 0  
Month to date heating degree days 11 14  
Since 1 June heating degree days 11 14  
Since 1 July heating degree days 5387 5404  
Cooling Degree Days 3 7  
Month to date cooling degree days 62 80  
Year to date cooling degree days 171 168  
Since 1 June cooling degree days 62 80  
Growing Degree Days 18 (Base 50)    
Moisture  
Dew Point 55 °F    
Average Humidity 61    
Maximum Humidity 86    
Minimum Humidity 36    
Precipitation  
Precipitation 0.00 in 0.12 in 1.03 in (1983)
Month to date precipitation 0.57 2.22  
Year to date precipitation 23.22 16.57  
Sea Level Pressure  
Sea Level Pressure 30.03 in    
Wind  
Wind Speed 6 mph (North)    
Max Wind Speed 12 mph    
Max Gust Speed 17 mph    
Visibility 10 miles    
Events      
T = Trace of Precipitation, MM = Missing Value Source: NWS Daily Summary

Daily Weather History Graph

Daily Weather History Graph

Search for Another Location

Airport or City:

Trip Planner

Search our weather history database for the weather conditions in past years. The results will help you decide how hot, cold, wet, or windy it might be!

Date:

Astronomy

Jun. 14, 2013 Rise Set
Actual Time 5:25 AM CDT 8:21 PM CDT
Civil Twilight 4:52 AM CDT 8:54 PM CDT
Nautical Twilight 4:11 AM CDT 9:35 PM CDT
Astronomical Twilight 3:24 AM CDT 10:22 PM CDT
Moon 10:58 AM CDT (6/14) 11:59 PM CDT (6/14)
Length of Visible Light 16h 01m
Length of Day
14h 56m
Waxing Crescent, 30% of the Moon is Illuminated
Jun 14
Waxing Crescent
Jun 16
First Quarter
Jun 23
Full
Jun 29
Last Quarter
Jul 8
New

Hourly Weather History & Observations

Time (CDT) Temp. Heat Index Dew Point Humidity Pressure Visibility Wind Dir Wind Speed Gust Speed Precip Events Conditions
12:53 AM 62.1 °F - 55.9 °F 80% 29.97 in 10.0 mi ENE 6.9 mph - N/A   Clear
1:53 AM 61.0 °F - 55.0 °F 81% 29.99 in 10.0 mi NE 5.8 mph - N/A   Clear
2:53 AM 59.0 °F - 54.0 °F 83% 30.02 in 10.0 mi North 5.8 mph - N/A   Partly Cloudy
3:53 AM 57.9 °F - 54.0 °F 87% 30.02 in 10.0 mi North 5.8 mph - N/A   Clear
4:53 AM 57.0 °F - 52.0 °F 83% 30.03 in 10.0 mi NNW 4.6 mph - N/A   Clear
5:53 AM 55.0 °F - 52.0 °F 89% 30.05 in 10.0 mi WNW 5.8 mph - N/A   Clear
6:53 AM 61.0 °F - 54.0 °F 78% 30.06 in 10.0 mi North 8.1 mph - N/A   Clear
7:53 AM 64.0 °F - 54.0 °F 70% 30.06 in 10.0 mi North 8.1 mph - N/A   Clear
8:53 AM 66.9 °F - 55.0 °F 66% 30.10 in 10.0 mi North 9.2 mph - N/A   Clear
9:53 AM 70.0 °F - 55.0 °F 59% 30.10 in 10.0 mi NNE 8.1 mph - N/A   Clear
10:53 AM 73.0 °F - 55.0 °F 53% 30.08 in 10.0 mi NNE 6.9 mph - N/A   Clear
11:53 AM 75.0 °F - 52.0 °F 44% 30.06 in 10.0 mi North 4.6 mph - N/A   Clear
12:53 PM 78.1 °F - 54.0 °F 43% 30.06 in 10.0 mi Variable 4.6 mph - N/A   Clear
1:53 PM 80.1 °F 80.1 °F 55.0 °F 42% 30.06 in 10.0 mi North 8.1 mph - N/A   Clear
2:53 PM 80.1 °F 79.9 °F 53.1 °F 39% 30.06 in 10.0 mi Variable 4.6 mph - N/A   Clear
3:53 PM 81.0 °F - 52.0 °F 36% 30.05 in 10.0 mi Calm Calm - N/A   Clear
4:53 PM 81.0 °F - 52.0 °F 36% 30.02 in 10.0 mi North 5.8 mph - N/A   Clear
5:53 PM 78.1 °F - 57.9 °F 50% 29.99 in 10.0 mi ESE 8.1 mph - N/A   Clear
6:53 PM 75.9 °F - 55.9 °F 50% 29.97 in 10.0 mi SE 5.8 mph - N/A   Clear
7:53 PM 73.0 °F - 57.9 °F 59% 30.00 in 10.0 mi Variable 4.6 mph - N/A   Clear
8:53 PM 72.0 °F - 59.0 °F 64% 30.01 in 10.0 mi SSW 3.5 mph - N/A   Clear
9:53 PM 69.1 °F - 59.0 °F 70% 30.01 in 10.0 mi South 3.5 mph - N/A   Clear
10:53 PM 68.0 °F - 61.0 °F 78% 30.03 in 10.0 mi SSW 3.5 mph - N/A   Clear
11:53 PM 66.0 °F - 61.0 °F 84% 30.02 in 10.0 mi SSW 4.6 mph - N/A   Clear